Find Starlink 36794

NORAD ID: 68955 Int'l Des: 2026-099 Owner: SPXS Country: US Constellation: starlink operational
LEOCIRCULAR

現在のビュー

3D地球を読み込み中...

About Starlink 36794

Starlink 36794 (NORAD 68955) is a starlink constellation satellite (v2 mini) launched May 1, 2026 by SPXS of US. It operates in LEO, CIRCULAR orbit with a mass of 575.00 kg.

Starlink 36794について

説明を読み込み中...

次回通過

Passes for default location (London). Set your location on the main map for personalized predictions.

高度履歴

Loading altitude history...

軌道要素

1 68955U 26099E 26170.23826029 .00016018 00000-0 48415-3 0 9998
2 68955 53.1596 151.9602 0001035 87.0326 273.0795 15.34402264 7587
Epoch: Jun 19, 2026 • Age: 28 hours

現在のステータス

高度 466.8 km
速度 7.64 km/s
衛星直下点 45.91°N, 136.08°E
打ち上げ日 May 1, 2026
運用期間 0.1 years
タイプ internet

技術仕様

分類 Payload
質量 575.00 kg
乾燥質量 530.00 kg
総質量 575.00 kg
長さ 0.30 m
直径 4.10 m
スパン 29.00 m
形状 Box + pan
製造者 SPXS
バスタイプ Starlink V2MO
フェーズステータス In Orbit
所有者/国 SPXS/US

Most Searched